Location: Cointrin
(46.2167°N, 6.1167°E)
Time: 08:32:31
(UTC+00:00)

Landsat 7 - Pass Details

Date: 08 February 2023
Orbit: 692 x 694 km, 97.9° (Epoch: 26 March)

Event Time Altitude Azimuth Distance (km) Brightness Sun altitude
Exits shadow 18:34:59 33° 61° (ENE) 1,166 4.5 -18.5°
Drops below altitude 10° 18:38:58 10° 4° (N) 2,163 6.3 -19.2°
Sets 18:41:23 0° 355° (N) 3,085 7.2 -19.6°
